TimeMST,TemperatureF,Dew PointF,Humidity,Sea Level PressureIn,VisibilityMPH,Wind Direction,Wind SpeedMPH,Gust SpeedMPH,PrecipitationIn,Events,Conditions,WindDirDegrees,DateUTC
12:15 AM,18.3,14.5,85,30.26,10.0,Calm,Calm,-,N/A,,Clear,0,2012-11-13 07:15:00
12:35 AM,16.2,12.9,87,30.25,10.0,Calm,Calm,-,N/A,,Clear,0,2012-11-13 07:35:00
12:55 AM,16.0,12.2,85,30.25,10.0,Calm,Calm,-,N/A,,Clear,0,2012-11-13 07:55:00
1:15 AM,17.2,14.0,87,30.24,10.0,Calm,Calm,-,N/A,,Clear,0,2012-11-13 08:15:00
1:35 AM,17.8,14.7,88,30.24,10.0,West,3.5,-,N/A,,Clear,260,2012-11-13 08:35:00
1:55 AM,15.8,12.9,88,30.24,10.0,Calm,Calm,-,N/A,,Clear,0,2012-11-13 08:55:00
2:15 AM,16.9,14.0,88,30.23,10.0,West,3.5,-,N/A,,Clear,280,2012-11-13 09:15:00
3:35 AM,19.9,16.7,87,30.21,10.0,Calm,Calm,-,N/A,,Clear,0,2012-11-13 10:35:00
4:15 AM,22.1,18.9,87,30.21,10.0,Calm,Calm,-,N/A,,Clear,0,2012-11-13 11:15:00
5:15 AM,22.5,19.2,87,30.22,10.0,Calm,Calm,-,N/A,,Clear,0,2012-11-13 12:15:00
6:35 AM,23.0,19.9,88,30.22,10.0,WSW,3.5,-,N/A,,Clear,240,2012-11-13 13:35:00
7:15 AM,24.6,21.0,86,30.23,10.0,West,4.6,-,N/A,,Clear,260,2012-11-13 14:15:00
9:01 AM,39.2,26.6,61,30.23,10.0,Calm,Calm,-,N/A,,Clear,0,2012-11-13 16:01:00
9:15 AM,40.1,26.4,58,30.22,10.0,Calm,Calm,-,N/A,,Clear,0,2012-11-13 16:15:00
10:16 AM,44.6,26.6,49,30.22,10.0,Calm,Calm,-,N/A,,Clear,0,2012-11-13 17:16:00
10:35 AM,48.9,23.2,36,30.22,10.0,Calm,Calm,-,N/A,,Clear,0,2012-11-13 17:35:00
10:36 AM,50.0,23.0,35,30.22,10.0,Calm,Calm,-,N/A,,Clear,0,2012-11-13 17:36:00
11:15 AM,51.8,19.4,28,30.20,10.0,NW,10.4,-,N/A,,Clear,320,2012-11-13 18:15:00
12:36 PM,53.6,24.8,33,30.18,10.0,WNW,15.0,23.0,N/A,,Clear,300,2012-11-13 19:36:00
12:55 PM,53.6,24.8,33,30.17,10.0,NW,13.8,19.6,N/A,,Clear,310,2012-11-13 19:55:00
1:15 PM,53.6,24.8,33,30.17,10.0,NW,15.0,18.4,N/A,,Clear,310,2012-11-13 20:15:00
1:57 PM,53.6,26.6,35,30.17,10.0,NW,9.2,-,N/A,,Overcast,310,2012-11-13 20:57:00
2:35 PM,53.6,26.6,35,30.18,10.0,NNW,15.0,-,N/A,,Clear,330,2012-11-13 21:35:00
2:55 PM,51.8,24.8,35,30.18,10.0,NNW,6.9,-,N/A,,Clear,330,2012-11-13 21:55:00
3:36 PM,51.8,26.6,38,30.19,10.0,NNW,6.9,-,N/A,,Scattered Clouds,330,2012-11-13 22:36:00
4:15 PM,48.2,26.6,43,30.20,10.0,NNW,8.1,-,N/A,,Clear,340,2012-11-13 23:15:00
4:57 PM,37.4,26.6,65,30.22,10.0,NNW,8.1,-,N/A,,Clear,330,2012-11-13 23:57:00
5:15 PM,35.6,26.6,70,30.22,10.0,NNW,6.9,-,N/A,,Clear,330,2012-11-14 00:15:00
5:35 PM,33.8,24.8,70,30.23,10.0,NNW,4.6,-,N/A,,Clear,330,2012-11-14 00:35:00
6:35 PM,30.2,24.8,80,30.24,10.0,WSW,5.8,-,N/A,,Clear,250,2012-11-14 01:35:00
6:55 PM,30.2,24.8,80,30.25,10.0,West,4.6,-,N/A,,Clear,270,2012-11-14 01:55:00
7:17 PM,28.4,23.0,80,30.25,10.0,WSW,3.5,-,N/A,,Clear,240,2012-11-14 02:17:00
7:35 PM,28.4,23.0,80,30.26,10.0,West,4.6,-,N/A,,Clear,270,2012-11-14 02:35:00
7:56 PM,26.6,21.2,80,30.27,10.0,West,5.8,-,N/A,,Clear,270,2012-11-14 02:56:00
8:15 PM,26.6,21.2,80,30.27,10.0,WNW,3.5,-,N/A,,Clear,290,2012-11-14 03:15:00
8:37 PM,26.6,23.0,86,30.27,10.0,WNW,4.6,-,N/A,,Clear,290,2012-11-14 03:37:00
9:35 PM,24.8,21.2,86,30.26,10.0,WSW,3.5,-,N/A,,Clear,250,2012-11-14 04:35:00
10:15 PM,23.4,20.1,87,30.27,10.0,West,6.9,-,N/A,,Clear,270,2012-11-14 05:15:00
10:35 PM,23.0,19.9,88,30.27,10.0,West,6.9,-,N/A,,Clear,270,2012-11-14 05:35:00
10:55 PM,22.8,19.9,89,30.27,10.0,West,5.8,-,N/A,,Clear,260,2012-11-14 05:55:00
10:57 PM,23.0,19.4,86,30.27,10.0,West,6.9,-,N/A,,Clear,260,2012-11-14 05:57:00
11:37 PM,21.2,17.6,86,30.27,10.0,West,4.6,-,N/A,,Clear,270,2012-11-14 06:37:00